RYR61SZ LFOB-LPPR

Flight info

Callsign RYR61SZ
Flight time N/A
Altitude 35000
Route LGL UT176 TERPO UN872 ERIGA UZ218 FUJTI/N0448F370 DCT ATLEN DCT INSID T326 ASPOR
Aircraft B38M/M-SADE3FGILRWY/SB1

Departure

Time N/A
Airport Beauvais-Tillé airport (LFOB)

Arrival

Time 2026-05-04 15:46
Airport Francisco de Sá Carneiro Airport (LPPR)
Time Latitude Longitude Altitude Speed Heading
2026-05-04 14:14 48.10199 -0.67555 34967 ft 412 kts 226°
2026-05-04 14:14 48.04534 -0.77186 34969 ft 412 kts 226°
2026-05-04 14:15 47.96959 -0.90010 34967 ft 411 kts 226°
2026-05-04 14:16 47.91301 -0.99547 34958 ft 410 kts 226°
2026-05-04 14:17 47.85619 -1.09091 34949 ft 410 kts 226°
2026-05-04 14:18 47.79948 -1.18583 34945 ft 411 kts 225°
2026-05-04 14:19 47.72316 -1.31304 34946 ft 412 kts 225°
2026-05-04 14:19 47.68509 -1.37626 34948 ft 413 kts 225°
2026-05-04 14:20 47.64671 -1.43989 34945 ft 413 kts 225°
2026-05-04 14:20 47.60848 -1.50312 34943 ft 414 kts 225°
2026-05-04 14:21 47.55055 -1.59869 34948 ft 415 kts 225°
2026-05-04 14:21 47.51185 -1.66236 34948 ft 416 kts 225°
2026-05-04 14:22 47.47306 -1.72605 34950 ft 417 kts 225°
2026-05-04 14:22 47.43440 -1.78936 34954 ft 417 kts 225°
2026-05-04 14:23 47.37610 -1.88457 34964 ft 418 kts 225°
2026-05-04 14:24 47.33353 -1.94175 34967 ft 411 kts 208°
2026-05-04 14:24 47.28458 -1.98622 34971 ft 414 kts 210°
2026-05-04 14:25 47.23535 -2.03053 34963 ft 413 kts 210°
2026-05-04 14:25 47.16186 -2.09610 34963 ft 413 kts 210°
2026-05-04 14:26 47.11262 -2.13989 34963 ft 413 kts 210°
2026-05-04 14:26 47.06331 -2.18365 34965 ft 414 kts 210°
2026-05-04 14:27 47.01396 -2.22735 34960 ft 414 kts 209°
2026-05-04 14:27 46.96482 -2.27076 34964 ft 414 kts 209°
2026-05-04 14:28 46.91532 -2.31440 34959 ft 414 kts 209°
2026-05-04 14:28 46.86621 -2.35762 34963 ft 414 kts 209°
2026-05-04 14:29 46.76716 -2.44457 34967 ft 415 kts 209°
2026-05-04 14:30 46.71760 -2.48795 34964 ft 415 kts 210°
2026-05-04 14:31 46.64341 -2.55271 34968 ft 416 kts 210°
2026-05-04 14:32 46.54380 -2.63932 34968 ft 417 kts 210°
2026-05-04 14:32 46.49419 -2.68231 34967 ft 417 kts 210°
2026-05-04 14:33 46.44423 -2.72553 34972 ft 417 kts 210°
2026-05-04 14:33 46.39452 -2.76842 34970 ft 418 kts 210°
2026-05-04 14:34 46.34445 -2.81153 34972 ft 419 kts 210°
2026-05-04 14:34 46.29434 -2.85461 34971 ft 419 kts 210°
2026-05-04 14:35 46.25403 -2.89336 34974 ft 420 kts 220°
2026-05-04 14:35 46.20937 -2.94836 34975 ft 421 kts 219°
2026-05-04 14:36 46.16458 -3.00298 34973 ft 421 kts 219°
2026-05-04 14:36 46.11980 -3.05751 34974 ft 421 kts 219°
2026-05-04 14:37 46.07501 -3.11194 34977 ft 421 kts 219°
2026-05-04 14:37 46.03022 -3.16624 34974 ft 420 kts 219°
2026-05-04 14:38 45.98553 -3.22030 34979 ft 420 kts 219°
2026-05-04 14:38 45.94108 -3.27396 34981 ft 419 kts 219°
2026-05-04 14:39 45.89638 -3.32780 34976 ft 419 kts 219°
2026-05-04 14:39 45.85169 -3.38152 34982 ft 419 kts 219°
2026-05-04 14:40 45.78475 -3.46177 34978 ft 418 kts 219°
2026-05-04 14:40 45.74003 -3.51522 35116 ft 418 kts 219°
2026-05-04 14:41 45.71768 -3.54190 35387 ft 420 kts 219°
2026-05-04 14:41 45.69518 -3.56873 35583 ft 422 kts 219°
2026-05-04 14:41 45.65008 -3.62241 36059 ft 425 kts 219°
2026-05-04 14:42 45.60438 -3.67668 36505 ft 429 kts 219°
2026-05-04 14:42 45.58139 -3.70395 36721 ft 430 kts 219°
2026-05-04 14:42 45.55825 -3.73135 36931 ft 431 kts 219°
2026-05-04 14:43 45.51191 -3.78614 36975 ft 432 kts 219°
2026-05-04 14:43 45.46583 -3.84052 36984 ft 432 kts 219°
2026-05-04 14:44 45.41942 -3.89516 36986 ft 432 kts 219°
2026-05-04 14:44 45.37302 -3.94966 36986 ft 432 kts 219°
2026-05-04 14:45 45.32665 -4.00401 36985 ft 432 kts 219°
2026-05-04 14:45 45.28015 -4.05839 36986 ft 432 kts 219°
2026-05-04 14:46 45.23399 -4.11226 36983 ft 432 kts 219°
2026-05-04 14:46 45.18752 -4.16637 36989 ft 432 kts 219°
2026-05-04 14:47 45.14112 -4.22029 36988 ft 431 kts 219°
2026-05-04 14:47 45.09464 -4.27417 36988 ft 431 kts 219°
2026-05-04 14:48 45.04843 -4.32763 36991 ft 431 kts 219°
2026-05-04 14:48 45.00186 -4.38139 36988 ft 431 kts 219°
2026-05-04 14:49 44.95532 -4.43500 36990 ft 431 kts 219°
2026-05-04 14:49 44.90913 -4.48810 36989 ft 431 kts 219°
2026-05-04 14:50 44.86254 -4.54152 36990 ft 431 kts 219°
2026-05-04 14:50 44.81597 -4.59482 36991 ft 431 kts 219°
2026-05-04 14:51 44.76935 -4.64806 36993 ft 431 kts 219°
2026-05-04 14:51 44.72305 -4.70083 36990 ft 431 kts 219°
2026-05-04 14:52 44.67651 -4.75375 36990 ft 430 kts 219°
2026-05-04 14:52 44.62991 -4.80665 36993 ft 431 kts 219°
2026-05-04 14:53 44.58325 -4.85952 36993 ft 430 kts 219°
2026-05-04 14:53 44.53665 -4.91220 36993 ft 430 kts 219°
2026-05-04 14:54 44.50032 -4.95191 36995 ft 430 kts 216°
2026-05-04 14:54 44.46256 -4.98931 36997 ft 430 kts 216°
2026-05-04 14:55 44.41423 -5.03780 36998 ft 430 kts 216°
2026-05-04 14:55 44.36555 -5.08666 36997 ft 430 kts 216°
2026-05-04 14:56 44.31685 -5.13544 36994 ft 430 kts 216°
2026-05-04 14:56 44.26817 -5.18412 36993 ft 430 kts 216°
2026-05-04 14:57 44.21940 -5.23277 36996 ft 430 kts 216°
2026-05-04 14:57 44.17098 -5.28099 36996 ft 430 kts 216°
2026-05-04 14:58 44.12228 -5.32937 36997 ft 430 kts 216°
2026-05-04 14:58 44.07349 -5.37774 37000 ft 431 kts 216°
2026-05-04 14:59 44.02466 -5.42606 36999 ft 431 kts 216°
2026-05-04 15:00 43.95135 -5.49842 36999 ft 430 kts 216°
2026-05-04 15:00 43.90247 -5.54653 37000 ft 430 kts 216°
2026-05-04 15:01 43.82942 -5.61826 37002 ft 430 kts 217°
2026-05-04 15:01 43.78050 -5.66618 37005 ft 430 kts 217°
2026-05-04 15:02 43.73160 -5.71397 37004 ft 430 kts 217°
2026-05-04 15:02 43.68270 -5.76166 37010 ft 430 kts 217°
2026-05-04 15:03 43.63372 -5.80933 37022 ft 430 kts 217°
2026-05-04 15:03 43.58512 -5.85655 37022 ft 430 kts 217°
2026-05-04 15:04 43.53619 -5.90399 37024 ft 429 kts 217°
2026-05-04 15:04 43.48728 -5.95130 37019 ft 429 kts 217°
2026-05-04 15:05 43.43833 -5.99856 37020 ft 430 kts 217°
2026-05-04 15:05 43.38932 -6.04580 37022 ft 430 kts 217°
2026-05-04 15:06 43.34031 -6.09293 37013 ft 429 kts 217°
2026-05-04 15:07 43.26715 -6.16310 37000 ft 429 kts 217°
2026-05-04 15:07 43.21818 -6.20997 37007 ft 429 kts 217°
2026-05-04 15:08 43.16912 -6.25682 37022 ft 429 kts 217°
2026-05-04 15:08 43.12015 -6.30348 37001 ft 429 kts 217°
2026-05-04 15:09 43.07105 -6.35019 36978 ft 429 kts 217°
2026-05-04 15:09 43.02206 -6.39670 36981 ft 429 kts 217°
2026-05-04 15:10 42.94876 -6.46610 36993 ft 429 kts 217°
2026-05-04 15:11 42.87514 -6.53561 36991 ft 429 kts 217°
2026-05-04 15:11 42.82597 -6.58192 36985 ft 429 kts 217°
2026-05-04 15:12 42.77685 -6.62810 36986 ft 429 kts 217°
2026-05-04 15:12 42.72772 -6.67419 36981 ft 428 kts 217°
2026-05-04 15:13 42.67896 -6.71984 36990 ft 428 kts 217°
2026-05-04 15:13 42.62988 -6.76570 36989 ft 427 kts 217°
2026-05-04 15:14 42.58094 -6.81134 36992 ft 427 kts 217°
2026-05-04 15:14 42.53179 -6.85710 36996 ft 427 kts 217°
2026-05-04 15:15 42.48268 -6.90273 36998 ft 427 kts 218°
2026-05-04 15:15 42.43364 -6.94823 37005 ft 427 kts 218°
2026-05-04 15:16 42.36036 -7.01605 36994 ft 427 kts 218°
2026-05-04 15:16 42.31207 -7.06063 37006 ft 414 kts 218°
2026-05-04 15:17 42.28859 -7.08295 36997 ft 409 kts 224°
2026-05-04 15:17 42.25457 -7.14264 36962 ft 399 kts 239°
2026-05-04 15:17 42.23961 -7.17375 36559 ft 394 kts 239°
2026-05-04 15:18 42.22491 -7.20494 35995 ft 393 kts 240°
2026-05-04 15:18 42.21051 -7.23581 35607 ft 383 kts 240°
2026-05-04 15:18 42.19647 -7.26611 34876 ft 379 kts 240°
2026-05-04 15:19 42.16918 -7.32512 33637 ft 365 kts 240°
2026-05-04 15:19 42.15581 -7.35402 32961 ft 359 kts 240°
2026-05-04 15:19 42.12990 -7.40994 31719 ft 345 kts 240°
2026-05-04 15:20 42.11733 -7.43702 31100 ft 338 kts 240°
2026-05-04 15:20 42.10498 -7.46363 30516 ft 332 kts 240°
2026-05-04 15:20 42.09281 -7.48982 29900 ft 326 kts 240°
2026-05-04 15:20 42.08090 -7.51542 29162 ft 321 kts 240°
2026-05-04 15:21 42.07306 -7.53227 28630 ft 322 kts 240°
2026-05-04 15:21 42.06122 -7.55769 28172 ft 319 kts 240°
2026-05-04 15:21 42.03793 -7.60764 27304 ft 313 kts 240°
2026-05-04 15:22 42.02617 -7.63219 26862 ft 311 kts 235°
2026-05-04 15:22 42.01027 -7.65223 26415 ft 316 kts 218°
2026-05-04 15:22 41.97308 -7.68371 25523 ft 314 kts 218°
2026-05-04 15:23 41.95466 -7.69942 25088 ft 313 kts 217°
2026-05-04 15:23 41.93628 -7.71495 24695 ft 310 kts 217°
2026-05-04 15:23 41.91825 -7.73010 24284 ft 310 kts 217°
2026-05-04 15:23 41.90002 -7.74537 23874 ft 307 kts 217°
2026-05-04 15:24 41.87575 -7.76564 23290 ft 305 kts 217°
2026-05-04 15:24 41.82820 -7.80528 22052 ft 302 kts 217°
2026-05-04 15:25 41.81040 -7.82011 21573 ft 301 kts 217°
2026-05-04 15:25 41.79260 -7.83493 21144 ft 299 kts 217°
2026-05-04 15:25 41.77493 -7.84963 20718 ft 298 kts 217°
2026-05-04 15:26 41.73978 -7.87883 19856 ft 296 kts 217°
2026-05-04 15:26 41.72248 -7.89319 19434 ft 295 kts 217°
2026-05-04 15:26 41.68763 -7.92210 18637 ft 293 kts 216°
2026-05-04 15:27 41.67035 -7.93641 18216 ft 293 kts 216°
2026-05-04 15:27 41.63642 -7.96450 17357 ft 290 kts 216°
2026-05-04 15:28 41.60199 -7.99296 16470 ft 287 kts 216°
2026-05-04 15:28 41.58499 -8.00701 16060 ft 287 kts 216°
2026-05-04 15:28 41.55116 -8.03490 15225 ft 285 kts 215°
2026-05-04 15:29 41.53433 -8.04875 14805 ft 284 kts 215°
2026-05-04 15:30 41.46753 -8.10374 13240 ft 279 kts 215°
2026-05-04 15:30 41.41834 -8.14415 12103 ft 274 kts 215°
2026-05-04 15:31 41.38598 -8.17067 11327 ft 272 kts 214°
2026-05-04 15:31 41.36994 -8.18382 11016 ft 269 kts 215°
2026-05-04 15:32 41.32243 -8.22269 9883 ft 267 kts 214°
2026-05-04 15:32 41.29093 -8.24844 9133 ft 263 kts 214°
2026-05-04 15:33 41.25970 -8.27395 8369 ft 261 kts 215°
2026-05-04 15:34 41.21348 -8.31163 7299 ft 258 kts 214°
2026-05-04 15:34 41.19816 -8.32411 6935 ft 258 kts 214°
2026-05-04 15:34 41.17964 -8.33918 6550 ft 256 kts 215°
2026-05-04 15:35 41.14933 -8.36382 5884 ft 253 kts 215°
2026-05-04 15:35 41.13444 -8.37591 5490 ft 255 kts 214°
2026-05-04 15:35 41.11942 -8.38811 5205 ft 252 kts 214°
2026-05-04 15:36 41.08961 -8.41229 4643 ft 239 kts 215°
2026-05-04 15:36 41.07591 -8.42335 4530 ft 222 kts 216°
2026-05-04 15:36 41.06327 -8.43397 4357 ft 208 kts 221°
2026-05-04 15:37 41.05369 -8.44711 4197 ft 191 kts 242°
2026-05-04 15:37 41.04773 -8.46174 4164 ft 171 kts 246°
2026-05-04 15:37 41.04217 -8.47559 4165 ft 171 kts 245°
2026-05-04 15:37 41.03648 -8.48943 4114 ft 171 kts 245°
2026-05-04 15:38 41.03076 -8.50312 4068 ft 169 kts 244°
2026-05-04 15:38 41.02500 -8.51677 4029 ft 170 kts 244°
2026-05-04 15:38 41.01919 -8.53038 4015 ft 170 kts 244°
2026-05-04 15:38 41.01336 -8.54394 4014 ft 169 kts 244°
2026-05-04 15:39 41.00753 -8.55749 4044 ft 170 kts 244°
2026-05-04 15:39 41.00165 -8.57106 4038 ft 169 kts 243°
2026-05-04 15:39 40.99811 -8.59937 3969 ft 161 kts 302°
2026-05-04 15:40 41.00659 -8.60891 4044 ft 164 kts 327°
2026-05-04 15:40 41.01686 -8.61573 4063 ft 166 kts 334°
2026-05-04 15:40 41.02774 -8.62102 4032 ft 167 kts 338°
2026-05-04 15:40 41.03881 -8.62527 4027 ft 168 kts 341°
2026-05-04 15:41 41.05021 -8.62895 3877 ft 168 kts 343°
2026-05-04 15:41 41.06163 -8.63223 3672 ft 167 kts 344°
2026-05-04 15:41 41.07298 -8.63532 3482 ft 165 kts 344°
2026-05-04 15:41 41.08428 -8.63833 3252 ft 165 kts 344°
2026-05-04 15:42 41.09556 -8.64130 3028 ft 164 kts 345°
2026-05-04 15:42 41.10649 -8.64416 2820 ft 155 kts 345°
2026-05-04 15:42 41.11640 -8.64674 2646 ft 136 kts 343°
2026-05-04 15:42 41.12558 -8.64914 2472 ft 134 kts 344°
2026-05-04 15:43 41.13468 -8.65153 2283 ft 133 kts 344°
2026-05-04 15:43 41.14367 -8.65388 2089 ft 131 kts 343°
2026-05-04 15:43 41.15258 -8.65622 1914 ft 130 kts 343°
2026-05-04 15:43 41.16154 -8.65861 1749 ft 133 kts 345°
2026-05-04 15:44 41.17062 -8.66092 1561 ft 133 kts 345°
2026-05-04 15:44 41.17965 -8.66330 1377 ft 131 kts 345°
2026-05-04 15:44 41.18858 -8.66567 1188 ft 131 kts 343°
2026-05-04 15:44 41.19752 -8.66798 1003 ft 131 kts 343°
2026-05-04 15:45 41.20628 -8.67031 810 ft 127 kts 345°
2026-05-04 15:45 41.21502 -8.67255 657 ft 131 kts 345°
2026-05-04 15:45 41.22395 -8.67493 473 ft 128 kts 343°
2026-05-04 15:45 41.23129 -8.67686 330 ft 121 kts 345°
2026-05-04 15:46 41.23922 -8.67892 226 ft 107 kts 345°
2026-05-04 15:46 41.24506 -8.68046 209 ft 55 kts 348°
2026-05-04 15:46 41.24756 -8.68110 206 ft 29 kts 348°
2026-05-04 15:46 41.24969 -8.68167 198 ft 34 kts 348°
2026-05-04 15:47 41.25210 -8.68138 181 ft 36 kts 13°
2026-05-04 15:47 41.25298 -8.68049 178 ft 8 kts 103°
2026-05-04 15:47 41.25272 -8.68020 179 ft 7 kts 161°
2026-05-04 15:47 41.25254 -8.68014 180 ft 0 kts 167°
2026-05-04 15:49 41.25252 -8.68014 181 ft 2 kts 167°
2026-05-04 15:49 41.25183 -8.67994 194 ft 19 kts 168°
2026-05-04 15:50 41.25019 -8.67950 187 ft 26 kts 168°
2026-05-04 15:50 41.24846 -8.67881 200 ft 26 kts 152°
2026-05-04 15:50 41.24680 -8.67809 215 ft 26 kts 168°
2026-05-04 15:50 41.24564 -8.67776 216 ft 26 kts 169°
2026-05-04 15:51 41.24334 -8.67715 228 ft 24 kts 167°